TimeCDT,TemperatureF,Dew PointF,Humidity,Sea Level PressureIn,VisibilityMPH,Wind Direction,Wind SpeedMPH,Gust SpeedMPH,PrecipitationIn,Events,Conditions,WindDirDegrees,DateUTC
12:14 AM,46.4,46.4,100,29.68,2.5,East,4.6,-,N/A,,Overcast,80,2013-03-24 05:14:00
12:53 AM,46.9,46.9,100,29.70,2.0,North,4.6,-,N/A,,Overcast,350,2013-03-24 05:53:00
1:20 AM,46.4,46.4,100,29.76,3.0,West,10.4,-,N/A,,Overcast,280,2013-03-24 06:20:00
1:28 AM,46.4,46.4,100,29.74,2.5,NW,6.9,-,N/A,,Overcast,320,2013-03-24 06:28:00
1:36 AM,46.4,46.4,100,29.71,1.2,Calm,Calm,-,N/A,,Overcast,0,2013-03-24 06:36:00
1:53 AM,46.0,46.0,100,29.78,1.8,WNW,11.5,-,N/A,,Overcast,290,2013-03-24 06:53:00
2:05 AM,46.4,46.4,100,29.82,1.5,West,12.7,-,N/A,,Overcast,270,2013-03-24 07:05:00
2:21 AM,46.4,46.4,100,29.80,2.0,West,10.4,18.4,0.00,Rain,Light Rain,280,2013-03-24 07:21:00
2:42 AM,46.4,46.4,100,29.71,1.8,NNW,9.2,17.3,0.00,Rain,Light Rain,330,2013-03-24 07:42:00
2:50 AM,46.4,46.4,100,29.74,2.5,WNW,11.5,21.9,0.00,,Overcast,300,2013-03-24 07:50:00
2:53 AM,46.9,46.9,100,29.73,3.0,WNW,12.7,-,0.00,,Overcast,300,2013-03-24 07:53:00
3:37 AM,48.2,46.4,93,29.79,3.0,West,10.4,-,N/A,,Overcast,280,2013-03-24 08:37:00
3:53 AM,48.0,46.9,96,29.75,9.0,West,6.9,-,N/A,,Overcast,280,2013-03-24 08:53:00
4:05 AM,48.2,46.4,93,29.73,9.0,West,4.6,-,N/A,,Overcast,280,2013-03-24 09:05:00
4:53 AM,48.0,46.9,96,29.75,10.0,WNW,13.8,-,N/A,,Overcast,290,2013-03-24 09:53:00
5:03 AM,48.2,46.4,93,29.75,10.0,West,13.8,-,N/A,,Overcast,280,2013-03-24 10:03:00
5:53 AM,45.0,42.1,90,29.80,10.0,West,21.9,31.1,0.01,,Overcast,280,2013-03-24 10:53:00
6:36 AM,44.6,39.2,81,29.81,10.0,WNW,17.3,24.2,N/A,,Overcast,290,2013-03-24 11:36:00
6:53 AM,44.1,39.9,85,29.82,10.0,WNW,15.0,24.2,N/A,,Overcast,290,2013-03-24 11:53:00
7:53 AM,42.1,34.0,73,29.86,10.0,WNW,19.6,29.9,N/A,,Overcast,290,2013-03-24 12:53:00
8:53 AM,41.0,30.9,67,29.89,10.0,WNW,24.2,29.9,N/A,,Overcast,300,2013-03-24 13:53:00
9:15 AM,41.0,30.2,65,29.90,10.0,WNW,21.9,34.5,N/A,,Overcast,290,2013-03-24 14:15:00
9:53 AM,41.0,28.9,62,29.92,10.0,WNW,24.2,35.7,N/A,,Overcast,290,2013-03-24 14:53:00
10:53 AM,42.1,28.9,60,29.95,10.0,WNW,23.0,34.5,N/A,,Overcast,300,2013-03-24 15:53:00
11:53 AM,43.0,28.9,58,29.97,10.0,NW,19.6,33.4,N/A,,Overcast,310,2013-03-24 16:53:00
12:53 PM,44.1,28.9,55,29.99,10.0,WNW,27.6,38.0,N/A,,Overcast,300,2013-03-24 17:53:00
1:53 PM,45.0,30.0,56,29.99,10.0,WNW,18.4,31.1,N/A,,Overcast,300,2013-03-24 18:53:00
2:53 PM,45.0,28.0,52,29.99,10.0,WNW,20.7,31.1,N/A,,Overcast,290,2013-03-24 19:53:00
3:53 PM,45.0,28.9,53,30.01,10.0,WNW,19.6,29.9,N/A,,Overcast,300,2013-03-24 20:53:00
4:53 PM,46.9,28.0,48,30.01,10.0,NW,19.6,28.8,N/A,,Mostly Cloudy,320,2013-03-24 21:53:00
5:53 PM,46.9,27.0,46,30.02,10.0,NW,19.6,28.8,N/A,,Scattered Clouds,310,2013-03-24 22:53:00
6:53 PM,45.0,27.0,49,30.04,10.0,NW,15.0,23.0,N/A,,Clear,320,2013-03-24 23:53:00
7:53 PM,42.1,27.0,55,30.06,10.0,NNW,8.1,-,N/A,,Clear,330,2013-03-25 00:53:00
8:53 PM,39.9,28.0,63,30.07,10.0,NW,8.1,-,N/A,,Clear,320,2013-03-25 01:53:00
9:53 PM,39.0,28.0,65,30.11,10.0,North,5.8,-,N/A,,Clear,350,2013-03-25 02:53:00
10:53 PM,37.9,27.0,65,30.13,10.0,North,10.4,-,N/A,,Clear,350,2013-03-25 03:53:00
11:53 PM,36.0,27.0,70,30.12,10.0,NNW,6.9,-,N/A,,Clear,330,2013-03-25 04:53:00